{"data":{"norad_id":66461,"intl_designator":"2025-262F","name":"STARLINK-35132","alt_names":[],"object_type":"PAYLOAD","status":"ACTIVE","operator":null,"country":"US","launch_date":"2025-11-15","launch_site_code":"AFETR","launch_vehicle":null,"mission":null,"orbit_class":"UNKNOWN","rcs_meters":null,"size_class":null,"mass_kg":null,"dimensions":null,"purposes":["comms"],"wikipedia_slug":null,"has_3d_model":false,"image_url":null,"decayed_at":null,"tle_current":{"epoch":"2026-05-24T16:52:16.839552Z","epoch_age_seconds":104308,"freshness":"FRESH","line1":"1 66461U 25262F   26144.70297268  .00018670  00000+0  68599-3 0  9999","line2":"2 66461  42.9990 226.7176 0001821 275.7814  84.2830 15.27592350 30530","mean_motion":15.2759235,"eccentricity":0.0001821,"inclination_deg":42.999,"raan_deg":226.7176,"arg_perigee_deg":275.7814,"mean_anomaly_deg":84.283,"bstar":0.00068599,"rev_number":3053,"period_min":94.265986603036,"perigee_km":481.76270069189,"apogee_km":484.26153119992,"semimajor_km":6861.1491159459,"source":"CELESTRAK","updated_at":"2026-05-25T13:38:21.214815Z"}}}